Rocky Mount, NC

6:55 PM EDT on March 24, 2017 (GMT -0400)
Rocky Mount-Wilson Regional

Weather History for KRWI - December, 2011

Change the Weather History Date:

Thursday, December 15, 2011

  Actual Average Record
Temperature  
Mean Temperature 52 °F -  
Max Temperature 68 °F 56 °F 76 °F (1971)
Min Temperature 37 °F 34 °F 12 °F (1962)
Degree Days  
Heating Degree Days 12    
Growing Degree Days 2 (Base 50)    
Moisture  
Dew Point 43 °F    
Average Humidity 70    
Maximum Humidity 86    
Minimum Humidity 50    
Precipitation  
Precipitation 0.00 in - - ()
Sea Level Pressure  
Sea Level Pressure 30.21 in    
Wind  
Wind Speed 4 mph (SSW)    
Max Wind Speed 17 mph    
Max Gust Speed 21 mph    
Visibility 10 miles    
Events      
Averages and records for this station are not official NWS values.
T = Trace of Precipitation, MM = Missing Value Source: NWS Daily Summary

Daily Weather History Graph

Daily Weather History Graph

Search for Another Location

Airport or City:

Trip Planner

Search our weather history database for the weather conditions in past years. The results will help you decide how hot, cold, wet, or windy it might be!

Date:

Astronomy

Dec. 15, 2011 Rise Set
Actual Time 7:14 AM EST 4:58 PM EST
Civil Twilight 6:45 AM EST 5:27 PM EST
Nautical Twilight 6:13 AM EST 5:59 PM EST
Astronomical Twilight 5:42 AM EST 6:30 PM EST
Moon 10:14 PM EST (12/15) 10:37 AM EST (12/15)
Length of Visible Light 10h 41m
Length of Day
9h 44m
Waning Gibbous, 75% of the Moon is Illuminated
Dec 15
Waning Gibbous
Dec 17
Last Quarter
Dec 24
New
Jan 1
First Quarter
Jan 9
Full

Hourly Weather History & Observations

Time (EST) Temp. Windchill Dew Point Humidity Pressure Visibility Wind Dir Wind Speed Gust Speed Precip Events Conditions
12:53 AM 39.0 °F - 34.0 °F 82% 30.32 in 10.0 mi Calm Calm - N/A   Clear
1:53 AM 37.9 °F - 34.0 °F 86% 30.30 in 10.0 mi Calm Calm - N/A   Clear
2:53 AM 39.0 °F - 33.1 °F 79% 30.30 in 10.0 mi Calm Calm - N/A   Clear
3:53 AM 39.9 °F - 33.1 °F 77% 30.30 in 10.0 mi Calm Calm - N/A   Clear
4:53 AM 37.0 °F - 33.1 °F 86% 30.29 in 10.0 mi Calm Calm - N/A   Clear
5:53 AM 37.0 °F - 33.1 °F 86% 30.30 in 10.0 mi Calm Calm - N/A   Clear
6:53 AM 37.0 °F - 33.1 °F 86% 30.30 in 10.0 mi Calm Calm - N/A   Clear
7:53 AM 39.0 °F 36.8 °F 35.1 °F 86% 30.29 in 10.0 mi South 3.5 mph - N/A   Clear
8:53 AM 48.2 °F - 39.2 °F 71% 30.28 in 10.0 mi South 5.8 mph - N/A   Clear
9:53 AM 55.9 °F - 41.0 °F 57% 30.29 in 10.0 mi SW 8.1 mph - N/A   Clear
10:53 AM 61.0 °F - 45.0 °F 56% 30.27 in 10.0 mi SSW 8.1 mph - N/A   Clear
11:53 AM 64.9 °F - 46.9 °F 52% 30.22 in 10.0 mi SSW 12.7 mph 19.6 mph N/A   Clear
12:53 PM 66.9 °F - 48.0 °F 51% 30.18 in 10.0 mi SSW 13.8 mph - N/A   Clear
1:53 PM 68.0 °F - 48.9 °F 50% 30.15 in 10.0 mi SSW 17.3 mph - N/A   Clear
2:53 PM 68.0 °F - 50.0 °F 52% 30.14 in 10.0 mi SW 11.5 mph 20.7 mph N/A   Partly Cloudy
3:53 PM 66.2 °F - 50.0 °F 56% 30.12 in 10.0 mi SW 15.0 mph - N/A   Partly Cloudy
4:53 PM 62.1 °F - 50.0 °F 65% 30.13 in 10.0 mi SSW 6.9 mph - N/A   Clear
5:53 PM 61.0 °F - 50.0 °F 67% 30.12 in 10.0 mi South 6.9 mph - N/A   Clear
6:53 PM 61.0 °F - 50.0 °F 67% 30.10 in 10.0 mi South 6.9 mph - N/A   Clear
7:53 PM 61.0 °F - 50.0 °F 67% 30.09 in 10.0 mi SSW 8.1 mph - N/A   Clear
8:53 PM 57.9 °F - 50.0 °F 75% 30.11 in 10.0 mi South 5.8 mph - N/A   Clear
9:53 PM 59.0 °F - 50.0 °F 72% 30.11 in 10.0 mi SSW 6.9 mph - N/A   Clear
10:53 PM 57.0 °F - 50.0 °F 77% 30.12 in 10.0 mi SSW 9.2 mph - N/A   Clear
11:53 PM 57.0 °F - 50.0 °F 77% 30.10 in 10.0 mi South 8.1 mph - N/A   Clear